IZ5MMH-14 Weather Reports


Display with metric or nautical units.
time (UTC)temp
F
wind
direction
speed
MPH
gust
MPH
rain 1hr
in
rain 24hr
in
rain mn
in
humidity
%
barometer
mb
20260507075001 71 0.0 0.0 0.00 0.00 0.00 87 1014.5
20260507074001 70 0.0 0.0 0.00 0.00 0.00 89 1014.6
20260507073000 70 0.0 0.0 0.00 0.00 0.00 91 1014.6
20260507072001 69 0.0 0.0 0.00 0.00 0.00 98 1014.7
20260507071000 69 0.0 0.0 0.00 0.00 0.00 10 1014.6
20260507070001 69 0.0 0.0 0.00 0.00 0.00 10 1014.6
20260507065001 67 0.0 0.0 0.00 0.00 0.00 10 1014.5
20260507064000 68 0.0 0.0 0.00 0.00 0.00 10 1014.4
20260507063001 67 0.0 0.0 0.00 0.00 0.00 10 1014.4
20260507062000 66 0.0 0.0 0.00 0.00 0.00 10 1014.3
20260507061000 67 0.0 0.0 0.00 0.00 0.00 10 1014.2
20260507060001 66 0.0 0.0 0.00 0.00 0.00 10 1014.2
20260507055001 66 0.0 0.0 0.00 0.00 0.00 10 1014.1
20260507054000 64 0.0 0.0 0.00 0.00 0.00 10 1014.0
20260507053001 64 0.0 0.0 0.00 0.00 0.00 10 1014.0
20260507052000 64 0.0 0.0 0.00 0.00 0.00 10 1013.9
20260507051001 63 0.0 0.0 0.00 0.00 0.00 10 1013.9
20260507050000 62 0.0 0.0 0.00 0.00 0.00 10 1013.6
20260507045001 62 0.0 0.0 0.00 0.00 0.00 10 1013.6
20260507044001 62 0.0 0.0 0.00 0.00 0.00 10 1013.5
20260507043001 61 0.0 0.0 0.00 0.00 0.00 10 1013.4
20260507042000 61 0.0 0.0 0.00 0.00 0.00 10 1013.5
20260507041000 61 0.0 0.0 0.00 0.00 0.00 10 1013.4
20260507040000 62 0.0 0.0 0.00 0.00 0.00 10 1013.4
20260507035000 61 0.0 0.0 0.00 0.00 0.00 10 1013.3
20260507034000 61 0.0 0.0 0.00 0.00 0.00 10 1013.2
20260507033001 62 0.0 0.0 0.00 0.00 0.00 10 1013.2
20260507032000 61 0.0 0.0 0.00 0.00 0.00 10 1013.3
20260507031001 61 0.0 0.0 0.00 0.00 0.00 10 1013.4
20260507030000 61 0.0 0.0 0.00 0.00 0.00 10 1013.3
20260507025000 62 0.0 0.0 0.00 0.00 0.00 10 1013.4
20260507024001 62 0.0 0.0 0.00 0.00 0.00 10 1013.4
20260507023001 62 0.0 0.0 0.00 0.00 0.00 10 1013.3
20260507022000 62 0.0 0.0 0.00 0.00 0.00 10 1013.3
20260507021000 61 0.0 0.0 0.00 0.00 0.00 10 1013.2
20260507020001 61 0.0 0.0 0.00 0.00 0.00 10 1013.2
20260507015000 61 0.0 0.0 0.00 0.00 0.00 10 1013.2
20260507014000 62 0.0 0.0 0.00 0.00 0.00 10 1013.1
20260507013001 62 0.0 0.0 0.00 0.00 0.00 10 1013.1
20260507012000 62 0.0 0.0 0.00 0.00 0.00 10 1013.1
20260507011001 62 0.0 0.0 0.00 0.00 0.00 10 1013.1
20260507010000 62 0.0 0.0 0.00 0.00 0.00 10 1013.1
20260507005001 63 0.0 0.0 0.00 0.00 0.00 10 1013.1
20260507004001 63 0.0 0.0 0.00 0.00 0.00 10 1013.2
20260507003001 64 0.0 0.0 0.00 0.00 0.00 10 1013.3
20260507002001 64 0.0 0.0 0.00 0.00 0.00 10 1013.2
20260507001000 65 0.0 0.0 0.00 0.00 0.00 10 1013.1
20260507000001 65 0.0 0.0 0.00 0.00 0.00 10 1013.1
20260506235000 66 0.0 0.0 0.00 0.00 0.00 10 1013.1
20260506234000 67 0.0 0.0 0.00 0.00 0.00 10 1013.1
20260506233000 66 0.0 0.0 0.00 0.00 0.00 94 1013.1
20260506232001 66 0.0 0.0 0.00 0.00 0.00 88 1013.1
20260506231000 66 0.0 0.0 0.00 0.00 0.00 93 1013.1
20260506230000 67 0.0 0.0 0.00 0.00 0.00 89 1013.1
20260506225000 67 0.0 0.0 0.00 0.00 0.00 99 1013.1
20260506224000 70 0.0 0.0 0.00 0.00 0.00 10 1013.0
20260506223000 71 0.0 0.0 0.00 0.00 0.00 10 1012.9
20260506222001 71 0.0 0.0 0.00 0.00 0.00 10 1012.8
20260506220001 71 0.0 0.0 0.00 0.00 0.00 10 1012.9
20260506215001 71 0.0 0.0 0.00 0.00 0.00 10 1012.9
20260506214001 71 0.0 0.0 0.00 0.00 0.00 10 1012.9
20260506213001 71 0.0 0.0 0.00 0.00 0.00 10 1012.8
20260506212001 72 0.0 0.0 0.00 0.00 0.00 10 1012.8
20260506211001 72 0.0 0.0 0.00 0.00 0.00 10 1012.8
20260506210001 72 0.0 0.0 0.00 0.00 0.00 10 1012.8
20260506205001 72 0.0 0.0 0.00 0.00 0.00 10 1012.7
20260506204001 72 0.0 0.0 0.00 0.00 0.00 10 1012.7
20260506203001 71 0.0 0.0 0.00 0.00 0.00 10 1012.7
20260506202002 71 0.0 0.0 0.00 0.00 0.00 10 1012.6
20260506201001 70 0.0 0.0 0.00 0.00 0.00 10 1012.5
20260506200001 71 0.0 0.0 0.00 0.00 0.00 10 1012.4
20260506195001 71 0.0 0.0 0.00 0.00 0.00 10 1012.2
20260506194001 72 0.0 0.0 0.00 0.00 0.00 10 1012.1
20260506193001 72 0.0 0.0 0.00 0.00 0.00 10 1011.9
20260506192001 72 0.0 0.0 0.00 0.00 0.00 10 1011.8
20260506191001 72 0.0 0.0 0.00 0.00 0.00 10 1011.8
20260506190001 72 0.0 0.0 0.00 0.00 0.00 10 1011.5
20260506185001 72 0.0 0.0 0.00 0.00 0.00 10 1011.4
20260506184000 72 0.0 0.0 0.00 0.00 0.00 10 1011.3
20260506183000 72 0.0 0.0 0.00 0.00 0.00 10 1011.2
20260506182000 72 0.0 0.0 0.00 0.00 0.00 10 1011.2
20260506181001 72 0.0 0.0 0.00 0.00 0.00 10 1011.1
20260506180001 72 0.0 0.0 0.00 0.00 0.00 10 1011.1
20260506175001 72 0.0 0.0 0.00 0.00 0.00 10 1011.1
20260506174001 73 0.0 0.0 0.00 0.00 0.00 10 1011.1
20260506173000 73 0.0 0.0 0.00 0.00 0.00 10 1011.0
20260506172001 73 0.0 0.0 0.00 0.00 0.00 10 1010.9
20260506171001 73 0.0 0.0 0.00 0.00 0.00 10 1010.9
20260506170001 73 0.0 0.0 0.00 0.00 0.00 10 1011.0
20260506165001 74 0.0 0.0 0.00 0.00 0.00 10 1011.0
20260506164001 75 0.0 0.0 0.00 0.00 0.00 10 1011.0
20260506163001 74 0.0 0.0 0.00 0.00 0.00 10 1011.1
20260506162001 74 0.0 0.0 0.00 0.00 0.00 10 1011.2
20260506161001 74 0.0 0.0 0.00 0.00 0.00 10 1011.2
20260506160000 75 0.0 0.0 0.00 0.00 0.00 10 1011.3
20260506155001 76 0.0 0.0 0.00 0.00 0.00 10 1011.4
20260506154000 75 0.0 0.0 0.00 0.00 0.00 10 1011.2
20260506153000 75 0.0 0.0 0.00 0.00 0.00 99 1011.3
20260506152001 76 0.0 0.0 0.00 0.00 0.00 96 1011.2
20260506151001 76 0.0 0.0 0.00 0.00 0.00 96 1011.1
20260506150001 77 0.0 0.0 0.00 0.00 0.00 92 1011.1
20260506145001 77 0.0 0.0 0.00 0.00 0.00 95 1011.1
20260506144001 76 0.0 0.0 0.00 0.00 0.00 95 1011.2
20260506143000 76 0.0 0.0 0.00 0.00 0.00 92 1011.1
20260506142001 77 0.0 0.0 0.00 0.00 0.00 96 1011.1
20260506141001 77 0.0 0.0 0.00 0.00 0.00 95 1011.2
20260506140000 78 0.0 0.0 0.00 0.00 0.00 95 1011.3
20260506135000 78 0.0 0.0 0.00 0.00 0.00 95 1011.3
20260506134000 77 0.0 0.0 0.00 0.00 0.00 95 1011.2
20260506133001 77 0.0 0.0 0.00 0.00 0.00 97 1011.2
20260506132001 76 0.0 0.0 0.00 0.00 0.00 99 1011.2
20260506131001 75 0.0 0.0 0.00 0.00 0.00 10 1011.3
20260506130000 74 0.0 0.0 0.00 0.00 0.00 10 1011.3
20260506125001 75 0.0 0.0 0.00 0.00 0.00 10 1011.3
20260506124001 74 0.0 0.0 0.00 0.00 0.00 10 1011.5
20260506123000 74 0.0 0.0 0.00 0.00 0.00 10 1011.4
20260506122000 74 0.0 0.0 0.00 0.00 0.00 10 1011.6
20260506121001 74 0.0 0.0 0.00 0.00 0.00 10 1011.7
20260506120000 73 0.0 0.0 0.00 0.00 0.00 10 1011.6
20260506115001 73 0.0 0.0 0.00 0.00 0.00 10 1011.6
20260506114000 74 0.0 0.0 0.00 0.00 0.00 10 1011.7
20260506113000 73 0.0 0.0 0.00 0.00 0.00 10 1011.6
20260506112001 73 0.0 0.0 0.00 0.00 0.00 10 1011.5
20260506111001 73 0.0 0.0 0.00 0.00 0.00 10 1011.6
20260506110000 73 0.0 0.0 0.00 0.00 0.00 10 1011.7
20260506105001 72 0.0 0.0 0.00 0.00 0.00 10 1011.7
20260506103955 72 0.0 0.0 0.00 0.00 0.00 10 1011.7
20260506103000 72 0.0 0.0 0.00 0.00 0.00 10 1011.8
20260506102000 72 0.0 0.0 0.00 0.00 0.00 10 1011.8
20260506101000 72 0.0 0.0 0.00 0.00 0.00 10 1011.8
20260506100000 71 0.0 0.0 0.00 0.00 0.00 10 1011.7
20260506095001 71 0.0 0.0 0.00 0.00 0.00 10 1011.7
20260506094000 71 0.0 0.0 0.00 0.00 0.00 10 1011.6
20260506093001 71 0.0 0.0 0.00 0.00 0.00 10 1011.6
20260506092000 71 0.0 0.0 0.00 0.00 0.00 10 1011.6
20260506091000 70 0.0 0.0 0.00 0.00 0.00 10 1011.4
20260506090000 70 0.0 0.0 0.00 0.00 0.00 10 1011.3
20260506085000 70 0.0 0.0 0.00 0.00 0.00 10 1011.3
20260506084001 70 0.0 0.0 0.00 0.00 0.00 10 1011.3
20260506083000 70 0.0 0.0 0.00 0.00 0.00 10 1011.1
20260506082000 69 0.0 0.0 0.00 0.00 0.00 10 1011.0
20260506081000 70 0.0 0.0 0.00 0.00 0.00 10 1011.0